LPFR

Faro Airport

Airport
ICAO code
LPFR
IATA Code
FAO
Summary
ICAO Region
EUR
ICAO Territory
Location

Faro, Faro

Serving
Faro
Elevation
24 ft
Coordinates
37° 0' 55" N , 7° 58' 19" W
KCC
Metar
Observation
LPFR 280730Z 01005KT 340V040 CAVOK 06/M02 Q1020
Station
Faro / Aeroporto
Date/Time
2023-01-28 08:30:00
Wind direction
10°
Wind speed
05 kts
Lowest cloud amount
clouds and visibility OK
Temperature
6°C
Dew point
-2°C
Humidity
56%
QNH
1020 hPa
Weather condition
n/a

Description

International airport serving south coast of Portugal.

Climatology

Dry-summer subtropical ”Mediterranean" climate (Köppen climate classification Csa) - characterized by hot, dry summers and mild winters. During the summer, subtropical high pressure cells dominate, making rainfall unlikely except for the occasional thunderstorm. In the winter, periodic storms bring rain.

Runways

Designator Length Width Surface Rops
10/28 2490 45 ASP Yes/Yes

Airport map

Aerial View

SKYbrary Partners:

Safety knowledge contributed by: